START_TIME,STEP,MOV.,M6,t_acc.,M7,t_acc.,M19,t_acc.,H36,t_acc.
1979-07-03 09:00:27.930 ,0,0,0.,12.0,0.,12.0,0.,12.0,0.,12.0
1979-07-03 09:00:39.930 ,0,0,0.,12.0,0.,12.0,0.,12.0,0.,12.0
1979-07-03 09:00:51.930 ,0,1,0.,12.0,0.,12.0,0.,12.0,0.,12.0
1979-07-03 09:01:03.930 ,0,1,0.,12.0,0.,12.0,0.,12.0,0.,12.0
1979-07-03 09:01:15.930 ,0,0,0.,12.0,0.,12.0,0.,12.0,0.,12.0
1979-07-03 09:01:27.930 ,0,0,0.,12.0,0.,12.0,0.,12.0,0.,12.0
1979-07-03 09:01:39.930 ,1,1,1.,12.0,0.,12.0,0.,12.0,0.,12.0
1979-07-03 09:01:51.930 ,1,1,0.,12.0,0.,12.0,0.,12.0,0.,12.0
1979-07-03 09:02:03.930 ,1,0,0.,12.0,0.,12.0,0.,12.0,0.,12.0
1979-07-03 09:02:15.930 ,1,0,0.,12.0,0.,12.0,0.,12.0,0.,12.0
1979-07-03 09:02:27.930 ,2,1,0.,12.0,0.,12.0,0.,12.0,0.,12.0
1979-07-03 09:02:39.930 ,2,1,0.,12.0,0.,12.0,0.,12.0,0.,12.0
1979-07-03 09:02:51.930 ,2,0,0.,12.0,0.,12.0,0.,12.0,0.,12.0
1979-07-03 09:03:03.930 ,2,0,0.,12.0,0.,12.0,0.,12.0,0.,12.0
1979-07-03 09:03:15.930 ,3,1,0.,12.0,0.,12.0,0.,12.0,0.,12.0
1979-07-03 09:03:27.930 ,3,1,0.,12.0,0.,12.0,0.,12.0,0.,12.0
1979-07-03 09:03:39.930 ,3,0,0.,12.0,0.,12.0,0.,12.0,0.,12.0
1979-07-03 09:03:51.930 ,3,0,0.,12.0,0.,12.0,0.,12.0,0.,12.0
1979-07-03 09:04:03.930 ,4,1,0.,12.0,0.,12.0,0.,12.0,0.,12.0
1979-07-03 09:04:15.930 ,4,1,0.,12.0,0.,12.0,0.,12.0,0.,12.0
1979-07-03 09:04:27.930 ,4,0,0.,12.0,0.,12.0,0.,12.0,0.,12.0
1979-07-03 09:04:39.930 ,4,0,0.,12.0,0.,12.0,0.,12.0,0.,12.0
1979-07-03 09:04:51.930 ,5,1,0.,12.0,0.,12.0,0.,12.0,0.,12.0
1979-07-03 09:05:03.930 ,5,1,0.,12.0,0.,12.0,0.,12.0,0.,12.0
1979-07-03 09:05:15.930 ,5,0,0.,12.0,0.,12.0,0.,12.0,0.,12.0
1979-07-03 09:05:27.930 ,5,0,0.,12.0,0.,12.0,0.,12.0,0.,12.0
1979-07-03 09:05:39.930 ,6,1,0.,12.0,0.,12.0,0.,12.0,0.,12.0
1979-07-03 09:05:51.930 ,6,1,0.,12.0,0.,12.0,0.,12.0,0.,12.0
1979-07-03 09:06:03.930 ,6,0,0.,12.0,0.,12.0,0.,12.0,0.,12.0
1979-07-03 09:06:15.930 ,6,0,0.,12.0,0.,12.0,0.,12.0,0.,12.0
1979-07-03 09:06:27.930 ,7,1,0.,12.0,0.,12.0,0.,12.0,0.,12.0
1979-07-03 09:06:39.930 ,7,1,0.,12.0,0.,12.0,0.,12.0,0.,12.0
1979-07-03 09:06:51.930 ,7,0,0.,12.0,0.,12.0,0.,12.0,0.,12.0
1979-07-03 09:07:03.930 ,7,0,0.,12.0,0.,12.0,0.,12.0,0.,12.0
1979-07-03 09:07:15.930 ,7,1,0.,12.0,0.,12.0,0.,12.0,0.,12.0
1979-07-03 09:07:27.930 ,7,1,0.,12.0,0.,12.0,0.,12.0,0.,12.0
1979-07-03 09:07:39.930 ,7,0,0.,12.0,0.,12.0,0.,12.0,0.,12.0
1979-07-03 09:07:51.930 ,7,0,0.,12.0,0.,12.0,0.,12.0,0.,12.0
1979-07-03 09:08:03.930 ,6,1,0.,12.0,0.,12.0,0.,12.0,0.,12.0
1979-07-03 09:08:15.930 ,6,1,0.,12.0,0.,12.0,0.,12.0,0.,12.0
1979-07-03 09:08:27.930 ,6,0,0.,12.0,0.,12.0,0.,12.0,0.,12.0
1979-07-03 09:08:39.930 ,6,0,0.,12.0,0.,12.0,0.,12.0,0.,12.0
1979-07-03 09:08:51.930 ,5,1,0.,12.0,0.,12.0,0.,12.0,0.,12.0
1979-07-03 09:09:03.930 ,5,1,0.,12.0,0.,12.0,0.,12.0,0.,12.0
1979-07-03 09:09:15.930 ,5,0,0.,12.0,0.,12.0,0.,12.0,0.,12.0
1979-07-03 09:09:27.930 ,5,0,0.,12.0,0.,12.0,0.,12.0,0.,12.0
1979-07-03 09:09:39.930 ,4,1,0.,12.0,0.,12.0,0.,12.0,0.,12.0
1979-07-03 09:09:51.930 ,4,1,0.,12.0,0.,12.0,0.,12.0,0.,12.0
1979-07-03 09:10:03.930 ,4,0,0.,12.0,0.,12.0,0.,12.0,0.,12.0
1979-07-03 09:10:15.930 ,4,0,0.,12.0,0.,12.0,0.,12.0,0.,12.0
1979-07-03 09:10:27.930 ,3,1,0.,12.0,0.,12.0,0.,12.0,0.,12.0
1979-07-03 09:10:39.930 ,3,1,0.,12.0,0.,12.0,0.,12.0,0.,12.0
1979-07-03 09:10:51.930 ,3,0,0.,12.0,0.,12.0,0.,12.0,0.,12.0
1979-07-03 09:11:03.930 ,3,0,0.,12.0,0.,12.0,0.,12.0,0.,12.0
1979-07-03 09:11:15.930 ,2,1,0.,12.0,0.,12.0,0.,12.0,0.,12.0
1979-07-03 09:11:27.930 ,2,1,0.,12.0,0.,12.0,0.,12.0,0.,12.0
1979-07-03 09:11:39.930 ,2,0,0.,12.0,0.,12.0,0.,12.0,0.,12.0
1979-07-03 09:11:51.930 ,2,0,0.,12.0,0.,12.0,0.,12.0,0.,12.0
1979-07-03 09:12:03.930 ,1,1,0.,12.0,0.,12.0,0.,12.0,0.,12.0
1979-07-03 09:12:15.930 ,1,1,0.,12.0,0.,12.0,0.,12.0,0.,12.0
1979-07-03 09:12:27.930 ,1,0,0.,12.0,0.,12.0,0.,12.0,0.,12.0
1979-07-03 09:12:39.930 ,1,0,0.,12.0,0.,12.0,0.,12.0,0.,12.0
1979-07-03 09:12:51.930 ,0,1,0.,12.0,0.,12.0,0.,12.0,0.,12.0
1979-07-03 09:13:03.930 ,0,1,0.,12.0,0.,12.0,0.,12.0,0.,12.0
1979-07-03 09:13:15.930 ,0,0,0.,12.0,0.,12.0,0.,12.0,0.,12.0
1979-07-03 09:13:27.930 ,0,0,0.,12.0,0.,12.0,0.,12.0,0.,12.0
1979-07-03 09:13:39.930 ,0,1,0.,12.0,0.,12.0,0.,12.0,0.,12.0
1979-07-03 09:13:51.930 ,0,1,0.,12.0,0.,12.0,0.,12.0,0.,12.0
1979-07-03 09:14:03.930 ,0,0,0.,12.0,0.,12.0,0.,12.0,0.,12.0
1979-07-03 09:14:15.930 ,0,0,0.,12.0,0.,12.0,0.,12.0,0.,12.0
1979-07-03 09:14:27.930 ,1,1,0.,12.0,0.,12.0,0.,12.0,0.,12.0
1979-07-03 09:14:39.930 ,1,1,0.,12.0,0.,12.0,0.,12.0,0.,12.0
1979-07-03 09:14:51.930 ,1,0,0.,12.0,0.,12.0,0.,12.0,0.,12.0
1979-07-03 09:15:03.930 ,1,0,0.,12.0,0.,12.0,0.,12.0,0.,12.0
1979-07-03 09:15:15.930 ,2,1,0.,12.0,0.,12.0,0.,12.0,0.,12.0
1979-07-03 09:15:27.930 ,2,1,0.,12.0,0.,12.0,0.,12.0,0.,12.0
1979-07-03 09:15:39.930 ,2,0,0.,12.0,0.,12.0,0.,12.0,0.,12.0
1979-07-03 09:15:51.930 ,2,0,0.,12.0,0.,12.0,0.,12.0,0.,12.0
1979-07-03 09:16:03.930 ,3,1,0.,12.0,0.,12.0,0.,12.0,0.,12.0
1979-07-03 09:16:15.930 ,3,1,0.,12.0,0.,12.0,0.,12.0,0.,12.0
1979-07-03 09:16:27.930 ,0,0,0.,12.0,0.,12.0,0.,12.0,0.,12.0
1979-07-03 09:16:39.930 ,0,0,0.,12.0,0.,12.0,0.,12.0,0.,12.0
1979-07-03 09:16:51.930 ,4,1,0.,12.0,0.,12.0,0.,12.0,0.,12.0
1979-07-03 09:17:03.930 ,4,1,0.,12.0,0.,12.0,0.,12.0,0.,12.0
1979-07-03 09:17:15.930 ,4,0,0.,12.0,0.,12.0,0.,12.0,0.,12.0
1979-07-03 09:17:27.930 ,4,0,0.,12.0,0.,12.0,0.,12.0,0.,12.0
1979-07-03 09:17:39.930 ,5,1,0.,12.0,0.,12.0,0.,12.0,0.,12.0
1979-07-03 09:17:51.930 ,5,1,0.,12.0,0.,12.0,0.,12.0,0.,12.0
1979-07-03 09:18:03.930 ,5,0,0.,12.0,0.,12.0,0.,12.0,0.,12.0
1979-07-03 09:18:15.930 ,5,0,0.,12.0,0.,12.0,0.,12.0,0.,12.0
1979-07-03 09:18:27.930 ,6,1,0.,12.0,0.,12.0,0.,12.0,0.,12.0
1979-07-03 09:18:39.930 ,6,1,0.,12.0,0.,12.0,0.,12.0,0.,12.0
1979-07-03 09:18:51.930 ,6,0,0.,12.0,0.,12.0,0.,12.0,0.,12.0
1979-07-03 09:19:03.930 ,6,0,0.,12.0,0.,12.0,0.,12.0,0.,12.0
1979-07-03 09:19:15.930 ,7,1,0.,12.0,0.,12.0,0.,12.0,0.,12.0
1979-07-03 09:19:27.930 ,7,1,0.,12.0,0.,12.0,0.,12.0,0.,12.0
1979-07-03 09:19:39.930 ,7,0,0.,12.0,0.,12.0,0.,12.0,0.,12.0
1979-07-03 09:19:51.930 ,7,0,0.,12.0,0.,12.0,0.,12.0,0.,12.0
1979-07-03 09:20:03.930 ,7,1,0.,12.0,0.,12.0,0.,12.0,0.,12.0
1979-07-03 09:20:15.930 ,7,1,0.,12.0,0.,12.0,0.,12.0,0.,12.0
1979-07-03 09:20:27.930 ,7,0,0.,12.0,0.,12.0,0.,12.0,0.,12.0
1979-07-03 09:20:39.930 ,7,0,0.,12.0,0.,12.0,0.,12.0,0.,12.0
1979-07-03 09:20:51.930 ,6,1,0.,12.0,0.,12.0,0.,12.0,0.,12.0
1979-07-03 09:21:03.930 ,6,1,0.,12.0,0.,12.0,0.,12.0,0.,12.0
1979-07-03 09:21:15.930 ,6,0,0.,12.0,0.,12.0,0.,12.0,0.,12.0
1979-07-03 09:21:27.930 ,6,0,0.,12.0,0.,12.0,0.,12.0,0.,12.0
1979-07-03 09:21:39.930 ,5,1,0.,12.0,0.,12.0,0.,12.0,0.,12.0
1979-07-03 09:21:51.930 ,5,1,0.,12.0,0.,12.0,0.,12.0,0.,12.0
1979-07-03 09:22:03.930 ,5,0,0.,12.0,0.,12.0,0.,12.0,0.,12.0
1979-07-03 09:22:15.930 ,5,0,0.,12.0,0.,12.0,0.,12.0,0.,12.0
1979-07-03 09:22:27.930 ,4,1,0.,12.0,0.,12.0,0.,12.0,0.,12.0
1979-07-03 09:22:39.930 ,4,1,0.,12.0,0.,12.0,0.,12.0,0.,12.0
1979-07-03 09:22:51.930 ,4,0,0.,12.0,0.,12.0,0.,12.0,0.,12.0
1979-07-03 09:23:03.930 ,4,0,0.,12.0,0.,12.0,0.,12.0,0.,12.0
1979-07-03 09:23:15.930 ,3,1,0.,12.0,0.,12.0,0.,12.0,0.,12.0
1979-07-03 09:23:27.930 ,3,1,0.,12.0,0.,12.0,0.,12.0,0.,12.0
1979-07-03 09:23:39.930 ,3,0,0.,12.0,0.,12.0,0.,12.0,0.,12.0
1979-07-03 09:23:51.930 ,3,0,0.,12.0,0.,12.0,0.,12.0,0.,12.0
1979-07-03 09:24:03.930 ,2,1,0.,12.0,0.,12.0,0.,12.0,0.,12.0
1979-07-03 09:24:15.930 ,2,1,0.,12.0,0.,12.0,0.,12.0,0.,12.0
1979-07-03 09:24:27.930 ,2,0,0.,12.0,0.,12.0,0.,12.0,0.,12.0
1979-07-03 09:24:39.930 ,2,0,0.,12.0,0.,12.0,0.,12.0,0.,12.0
1979-07-03 09:24:51.930 ,1,1,0.,12.0,0.,12.0,0.,12.0,0.,12.0
1979-07-03 09:25:03.930 ,1,1,0.,12.0,0.,12.0,0.,12.0,0.,12.0
1979-07-03 09:25:15.930 ,1,0,0.,12.0,0.,12.0,0.,12.0,0.,12.0
1979-07-03 09:25:27.930 ,1,0,0.,12.0,0.,12.0,0.,12.0,0.,12.0
1979-07-03 09:25:39.930 ,0,1,0.,12.0,0.,12.0,0.,12.0,0.,12.0
1979-07-03 09:25:51.930 ,0,1,0.,12.0,0.,12.0,0.,12.0,0.,12.0
1979-07-03 09:26:03.930 ,0,0,0.,12.0,0.,12.0,0.,12.0,0.,12.0
1979-07-03 09:26:15.930 ,0,0,0.,12.0,0.,12.0,0.,12.0,0.,12.0
1979-07-03 09:26:27.930 ,0,1,0.,12.0,0.,12.0,0.,12.0,0.,12.0
1979-07-03 09:26:39.930 ,0,1,0.,12.0,0.,12.0,0.,12.0,0.,12.0
1979-07-03 09:26:51.930 ,0,0,0.,12.0,0.,12.0,0.,12.0,0.,12.0
1979-07-03 09:27:03.930 ,0,0,0.,12.0,0.,12.0,0.,12.0,0.,12.0
1979-07-03 09:27:15.930 ,1,1,0.,12.0,0.,12.0,0.,12.0,0.,12.0
1979-07-03 09:27:27.930 ,1,1,0.,12.0,0.,12.0,0.,12.0,0.,12.0
1979-07-03 09:27:39.930 ,1,0,0.,12.0,0.,12.0,0.,12.0,0.,12.0
1979-07-03 09:27:51.930 ,1,0,0.,12.0,0.,12.0,0.,12.0,0.,12.0
1979-07-03 09:28:03.930 ,2,1,0.,12.0,0.,12.0,0.,12.0,0.,12.0
1979-07-03 09:28:15.930 ,2,1,0.,12.0,0.,12.0,0.,12.0,0.,12.0
1979-07-03 09:28:27.930 ,2,0,0.,12.0,0.,12.0,0.,12.0,0.,12.0
1979-07-03 09:28:39.930 ,2,0,0.,12.0,0.,12.0,0.,12.0,0.,12.0
1979-07-03 09:28:51.930 ,3,1,0.,12.0,0.,12.0,0.,12.0,0.,12.0
1979-07-03 09:29:03.930 ,3,1,0.,12.0,0.,12.0,0.,12.0,0.,12.0
1979-07-03 09:29:15.930 ,3,0,0.,12.0,0.,12.0,0.,12.0,0.,12.0
1979-07-03 09:29:27.930 ,3,0,0.,12.0,0.,12.0,0.,12.0,0.,12.0
1979-07-03 09:29:39.930 ,4,1,0.,12.0,0.,12.0,0.,12.0,0.,12.0
1979-07-03 09:29:51.930 ,4,1,0.,12.0,0.,12.0,0.,12.0,0.,12.0
1979-07-03 09:30:03.930 ,4,0,0.,12.0,0.,12.0,0.,12.0,0.,12.0
1979-07-03 09:30:15.930 ,4,0,0.,12.0,0.,12.0,0.,12.0,0.,12.0
1979-07-03 09:30:27.930 ,5,1,0.,12.0,0.,12.0,0.,12.0,0.,12.0
1979-07-03 09:30:39.930 ,5,1,0.,12.0,0.,12.0,0.,12.0,0.,12.0
1979-07-03 09:30:51.930 ,5,0,0.,12.0,0.,12.0,0.,12.0,0.,12.0
1979-07-03 09:31:03.930 ,5,0,0.,12.0,0.,12.0,0.,12.0,0.,12.0
1979-07-03 09:31:15.930 ,6,1,0.,12.0,0.,12.0,0.,12.0,0.,12.0
1979-07-03 09:31:27.930 ,6,1,0.,12.0,0.,12.0,0.,12.0,0.,12.0
1979-07-03 09:31:39.930 ,6,0,0.,12.0,0.,12.0,0.,12.0,0.,12.0
1979-07-03 09:31:51.930 ,6,0,0.,12.0,0.,12.0,0.,12.0,0.,12.0
1979-07-03 09:32:03.930 ,7,1,0.,12.0,0.,12.0,0.,12.0,0.,12.0
1979-07-03 09:32:15.930 ,7,1,0.,12.0,0.,12.0,0.,12.0,0.,12.0
1979-07-03 09:32:27.930 ,7,0,0.,12.0,0.,12.0,0.,12.0,0.,12.0
1979-07-03 09:32:39.930 ,7,0,0.,12.0,0.,12.0,0.,12.0,0.,12.0
1979-07-03 09:32:51.930 ,7,1,0.,12.0,0.,12.0,0.,12.0,0.,12.0
1979-07-03 09:33:03.930 ,7,1,0.,12.0,0.,12.0,0.,12.0,0.,12.0
1979-07-03 09:33:15.930 ,7,0,0.,12.0,0.,12.0,0.,12.0,0.,12.0
1979-07-03 09:33:27.930 ,7,0,0.,12.0,0.,12.0,0.,12.0,0.,12.0
1979-07-03 09:33:39.930 ,6,1,0.,12.0,0.,12.0,0.,12.0,0.,12.0
1979-07-03 09:33:51.930 ,6,1,0.,12.0,0.,12.0,0.,12.0,0.,12.0
1979-07-03 09:34:03.930 ,6,0,0.,12.0,0.,12.0,0.,12.0,0.,12.0
1979-07-03 09:34:15.930 ,6,0,0.,12.0,0.,12.0,0.,12.0,0.,12.0
1979-07-03 09:34:27.930 ,5,1,0.,12.0,0.,12.0,0.,12.0,0.,12.0
1979-07-03 09:34:39.930 ,5,1,0.,12.0,0.,12.0,0.,12.0,0.,12.0
1979-07-03 09:34:51.930 ,5,0,0.,12.0,0.,12.0,0.,12.0,0.,12.0
1979-07-03 09:35:03.930 ,5,0,0.,12.0,0.,12.0,0.,12.0,0.,12.0
1979-07-03 09:35:15.930 ,4,1,0.,12.0,0.,12.0,0.,12.0,0.,12.0
1979-07-03 09:35:27.930 ,4,1,0.,12.0,0.,12.0,0.,12.0,0.,12.0
1979-07-03 09:35:39.930 ,4,0,0.,12.0,0.,12.0,0.,12.0,0.,12.0
1979-07-03 09:35:51.930 ,4,0,0.,12.0,0.,12.0,0.,12.0,0.,12.0
1979-07-03 09:36:03.930 ,3,1,1.,12.0,0.,12.0,0.,12.0,0.,12.0
1979-07-03 09:36:15.930 ,3,1,0.,12.0,0.,12.0,0.,12.0,0.,12.0
1979-07-03 09:36:27.930 ,3,0,0.,12.0,0.,12.0,0.,12.0,0.,12.0
1979-07-03 09:36:39.930 ,3,0,0.,12.0,0.,12.0,0.,12.0,0.,12.0
1979-07-03 09:36:51.930 ,2,1,0.,12.0,0.,12.0,0.,12.0,0.,12.0
1979-07-03 09:37:03.930 ,2,1,0.,12.0,0.,12.0,0.,12.0,0.,12.0
1979-07-03 09:37:15.930 ,2,0,0.,12.0,0.,12.0,0.,12.0,0.,12.0
1979-07-03 09:37:27.930 ,2,0,0.,12.0,0.,12.0,0.,12.0,0.,12.0
1979-07-03 09:37:39.930 ,1,1,0.,12.0,0.,12.0,0.,12.0,0.,12.0
1979-07-03 09:37:51.930 ,1,1,0.,12.0,0.,12.0,0.,12.0,0.,12.0
1979-07-03 09:38:03.930 ,1,0,0.,12.0,0.,12.0,0.,12.0,0.,12.0
1979-07-03 09:38:15.930 ,1,0,0.,12.0,0.,12.0,0.,12.0,0.,12.0
1979-07-03 09:38:27.930 ,0,1,0.,12.0,0.,12.0,0.,12.0,0.,12.0
1979-07-03 09:38:39.930 ,0,1,0.,12.0,0.,12.0,0.,12.0,0.,12.0
1979-07-03 09:38:51.930 ,0,0,0.,12.0,0.,12.0,0.,12.0,0.,12.0
1979-07-03 09:39:03.930 ,0,0,0.,12.0,0.,12.0,0.,12.0,0.,12.0
1979-07-03 09:39:15.930 ,0,1,0.,12.0,0.,12.0,0.,12.0,0.,12.0
1979-07-03 09:39:27.930 ,0,1,0.,12.0,0.,12.0,0.,12.0,0.,12.0
1979-07-03 09:39:39.930 ,0,0,0.,12.0,0.,12.0,0.,12.0,0.,12.0
1979-07-03 09:39:51.930 ,0,0,0.,12.0,0.,12.0,0.,12.0,0.,12.0
1979-07-03 09:40:03.930 ,1,1,0.,12.0,0.,12.0,0.,12.0,0.,12.0
1979-07-03 09:40:15.930 ,1,1,0.,12.0,0.,12.0,0.,12.0,0.,12.0
1979-07-03 09:40:27.930 ,1,0,0.,12.0,0.,12.0,0.,12.0,0.,12.0
1979-07-03 09:40:39.930 ,1,0,0.,12.0,0.,12.0,0.,12.0,0.,12.0
1979-07-03 09:40:51.930 ,2,1,0.,12.0,0.,12.0,0.,12.0,0.,12.0
1979-07-03 09:41:03.930 ,2,1,0.,12.0,0.,12.0,0.,12.0,0.,12.0
1979-07-03 09:41:15.930 ,2,0,0.,12.0,0.,12.0,0.,12.0,0.,12.0
1979-07-03 09:41:27.930 ,2,0,0.,12.0,0.,12.0,0.,12.0,0.,12.0
1979-07-03 09:41:39.930 ,3,1,0.,12.0,0.,12.0,0.,12.0,0.,12.0
1979-07-03 09:41:51.930 ,3,1,0.,12.0,0.,12.0,0.,12.0,0.,12.0
1979-07-03 09:42:03.930 ,3,0,0.,12.0,0.,12.0,0.,12.0,0.,12.0
1979-07-03 09:42:15.930 ,3,0,0.,12.0,0.,12.0,0.,12.0,0.,12.0
1979-07-03 09:42:27.930 ,4,1,0.,12.0,0.,12.0,0.,12.0,0.,12.0
1979-07-03 09:42:39.930 ,4,1,0.,12.0,0.,12.0,0.,12.0,0.,12.0
1979-07-03 09:42:51.930 ,4,0,0.,12.0,0.,12.0,0.,12.0,0.,12.0
1979-07-03 09:43:03.930 ,4,0,0.,12.0,0.,12.0,0.,12.0,0.,12.0
1979-07-03 09:43:15.930 ,5,1,0.,12.0,0.,12.0,0.,12.0,0.,12.0
1979-07-03 09:43:27.930 ,5,1,0.,12.0,0.,12.0,0.,12.0,0.,12.0
1979-07-03 09:43:39.930 ,5,0,0.,12.0,0.,12.0,0.,12.0,0.,12.0
1979-07-03 09:43:51.930 ,5,0,0.,12.0,0.,12.0,0.,12.0,0.,12.0
1979-07-03 09:44:03.930 ,6,1,0.,12.0,0.,12.0,0.,12.0,0.,12.0
1979-07-03 09:44:15.930 ,6,1,0.,12.0,0.,12.0,0.,12.0,0.,12.0
1979-07-03 09:44:27.930 ,6,0,0.,12.0,0.,12.0,0.,12.0,0.,12.0
1979-07-03 09:44:39.930 ,6,0,0.,12.0,0.,12.0,0.,12.0,0.,12.0
1979-07-03 09:44:51.930 ,7,1,0.,12.0,0.,12.0,0.,12.0,0.,12.0
1979-07-03 09:45:03.930 ,7,1,0.,12.0,0.,12.0,0.,12.0,0.,12.0
1979-07-03 09:45:15.930 ,7,0,0.,12.0,0.,12.0,0.,12.0,0.,12.0
1979-07-03 09:45:27.930 ,7,0,0.,12.0,0.,12.0,0.,12.0,0.,12.0
1979-07-03 09:45:39.930 ,7,1,0.,12.0,0.,12.0,0.,12.0,0.,12.0
1979-07-03 09:45:51.930 ,7,1,0.,12.0,0.,12.0,0.,12.0,0.,12.0
1979-07-03 09:46:03.930 ,7,0,0.,12.0,0.,12.0,0.,12.0,0.,12.0
1979-07-03 09:46:15.930 ,7,0,0.,12.0,0.,12.0,0.,12.0,0.,12.0
1979-07-03 09:46:27.930 ,6,1,0.,12.0,0.,12.0,0.,12.0,0.,12.0
1979-07-03 09:46:39.930 ,6,1,0.,12.0,0.,12.0,0.,12.0,0.,12.0
1979-07-03 09:46:51.930 ,6,0,0.,12.0,0.,12.0,0.,12.0,0.,12.0
1979-07-03 09:47:03.930 ,6,0,0.,12.0,0.,12.0,0.,12.0,0.,12.0
1979-07-03 09:47:15.930 ,5,1,0.,12.0,0.,12.0,0.,12.0,0.,12.0
1979-07-03 09:47:27.930 ,5,1,0.,12.0,0.,12.0,0.,12.0,0.,12.0
1979-07-03 09:47:39.930 ,5,0,0.,12.0,0.,12.0,0.,12.0,0.,12.0
1979-07-03 09:47:51.930 ,5,0,0.,12.0,0.,12.0,0.,12.0,0.,12.0
1979-07-03 09:48:03.930 ,4,1,0.,12.0,0.,12.0,0.,12.0,0.,12.0
1979-07-03 09:48:15.930 ,4,1,0.,12.0,0.,12.0,0.,12.0,0.,12.0
1979-07-03 09:48:27.930 ,4,0,0.,12.0,0.,12.0,0.,12.0,0.,12.0
1979-07-03 09:48:39.930 ,4,0,0.,12.0,0.,12.0,0.,12.0,0.,12.0
1979-07-03 09:48:51.930 ,3,1,0.,12.0,0.,12.0,0.,12.0,0.,12.0
1979-07-03 09:49:03.930 ,3,1,0.,12.0,0.,12.0,0.,12.0,0.,12.0
1979-07-03 09:49:15.930 ,3,0,0.,12.0,0.,12.0,0.,12.0,0.,12.0
1979-07-03 09:49:27.930 ,3,0,0.,12.0,0.,12.0,0.,12.0,0.,12.0
1979-07-03 09:49:39.930 ,2,1,0.,12.0,0.,12.0,0.,12.0,0.,12.0
1979-07-03 09:49:51.930 ,2,1,0.,12.0,0.,12.0,0.,12.0,0.,12.0
1979-07-03 09:50:03.930 ,2,0,0.,12.0,0.,12.0,0.,12.0,0.,12.0
1979-07-03 09:50:15.930 ,2,0,0.,12.0,0.,12.0,0.,12.0,0.,12.0
1979-07-03 09:50:27.930 ,1,1,0.,12.0,0.,12.0,0.,12.0,0.,12.0
1979-07-03 09:50:39.930 ,1,1,0.,12.0,0.,12.0,0.,12.0,0.,12.0
1979-07-03 09:50:51.930 ,1,0,0.,12.0,0.,12.0,0.,12.0,0.,12.0
1979-07-03 09:51:03.930 ,1,0,0.,12.0,0.,12.0,0.,12.0,0.,12.0
1979-07-03 09:51:15.930 ,0,0,0.,12.0,0.,12.0,0.,12.0,0.,12.0
1979-07-03 09:51:27.930 ,0,0,0.,12.0,0.,12.0,0.,12.0,0.,12.0
1979-07-03 09:51:39.930 ,0,0,0.,12.0,0.,12.0,0.,12.0,0.,12.0
1979-07-03 09:51:51.930 ,0,0,0.,12.0,0.,12.0,0.,12.0,0.,12.0
1979-07-03 09:52:03.930 ,7,0,0.,12.0,0.,12.0,0.,12.0,0.,12.0
1979-07-03 09:52:15.930 ,7,0,0.,12.0,0.,12.0,0.,12.0,0.,12.0
1979-07-03 09:52:27.930 ,7,0,0.,12.0,0.,12.0,0.,12.0,0.,12.0
1979-07-03 09:52:39.930 ,7,0,0.,12.0,0.,12.0,0.,12.0,0.,12.0
1979-07-03 09:52:51.930 ,7,0,0.,12.0,0.,12.0,0.,12.0,0.,12.0
1979-07-03 09:53:03.930 ,7,0,0.,12.0,0.,12.0,0.,12.0,0.,12.0
1979-07-03 09:53:15.930 ,7,0,0.,12.0,0.,12.0,0.,12.0,0.,12.0
1979-07-03 09:53:27.930 ,7,0,0.,12.0,0.,12.0,0.,12.0,0.,12.0
1979-07-03 09:53:39.930 ,7,0,0.,12.0,0.,12.0,0.,12.0,0.,12.0
1979-07-03 09:53:51.930 ,7,0,0.,12.0,0.,12.0,0.,12.0,0.,12.0
1979-07-03 09:54:03.930 ,7,0,0.,12.0,0.,12.0,0.,12.0,0.,12.0
1979-07-03 09:54:15.930 ,7,0,0.,12.0,0.,12.0,0.,12.0,0.,12.0
1979-07-03 09:54:27.930 ,7,0,0.,12.0,0.,12.0,0.,12.0,0.,12.0
1979-07-03 09:54:39.930 ,7,0,0.,12.0,0.,12.0,0.,12.0,0.,12.0
1979-07-03 09:54:51.930 ,7,0,0.,12.0,0.,12.0,0.,12.0,0.,12.0
1979-07-03 09:55:03.930 ,7,0,0.,12.0,0.,12.0,0.,12.0,0.,12.0
1979-07-03 09:55:15.930 ,4,1,0.,12.0,0.,12.0,0.,12.0,0.,12.0
1979-07-03 09:55:27.930 ,4,1,0.,12.0,0.,12.0,0.,12.0,0.,12.0
1979-07-03 09:55:39.930 ,0,1,0.,12.0,0.,12.0,0.,12.0,0.,12.0
1979-07-03 09:55:51.930 ,0,1,0.,12.0,0.,12.0,0.,12.0,0.,12.0
1979-07-03 09:56:03.930 ,3,1,,0,,0,,0,,0
1979-07-03 09:56:15.930 ,3,1,0.,12.0,0.,12.0,0.,12.0,0.,12.0
1979-07-03 09:56:27.930 ,7,1,0.,12.0,0.,12.0,0.,12.0,0.,12.0
1979-07-03 09:56:39.930 ,7,1,0.,12.0,0.,12.0,0.,12.0,0.,12.0
1979-07-03 09:56:51.930 ,4,1,0.,12.0,0.,12.0,0.,12.0,0.,12.0
1979-07-03 09:57:03.930 ,4,1,0.,12.0,0.,12.0,0.,12.0,0.,12.0
1979-07-03 09:57:15.930 ,0,1,0.,12.0,0.,12.0,0.,12.0,0.,12.0
1979-07-03 09:57:27.930 ,0,1,0.,12.0,0.,12.0,0.,12.0,0.,12.0
1979-07-03 09:57:39.930 ,3,1,0.,12.0,0.,12.0,0.,12.0,0.,12.0
1979-07-03 09:57:51.930 ,3,1,0.,12.0,0.,12.0,0.,12.0,0.,12.0
1979-07-03 09:58:03.930 ,7,1,0.,12.0,0.,12.0,0.,12.0,0.,12.0
1979-07-03 09:58:15.930 ,7,1,0.,12.0,0.,12.0,0.,12.0,0.,12.0
1979-07-03 09:58:27.930 ,4,1,0.,12.0,0.,12.0,0.,12.0,0.,12.0
1979-07-03 09:58:39.930 ,4,1,0.,12.0,0.,12.0,0.,12.0,0.,12.0
1979-07-03 09:58:51.930 ,0,1,0.,12.0,0.,12.0,0.,12.0,0.,12.0
1979-07-03 09:59:03.930 ,0,1,0.,12.0,0.,12.0,0.,12.0,0.,12.0
1979-07-03 09:59:15.930 ,3,1,0.,12.0,0.,12.0,0.,12.0,0.,12.0
1979-07-03 09:59:27.930 ,3,1,0.,12.0,0.,12.0,0.,12.0,0.,12.0
1979-07-03 09:59:39.930 ,7,1,0.,12.0,0.,12.0,0.,12.0,0.,12.0
1979-07-03 09:59:51.930 ,7,1,0.,12.0,0.,12.0,0.,12.0,0.,12.0
1979-07-03 10:00:03.920 ,4,1,0.,12.0,0.,12.0,0.,12.0,0.,12.0
1979-07-03 10:00:15.920 ,4,1,0.,12.0,0.,12.0,0.,12.0,0.,12.0
1979-07-03 10:00:27.930 ,0,1,0.,12.0,0.,12.0,0.,12.0,0.,12.0
1979-07-03 10:00:39.930 ,0,1,0.,12.0,0.,12.0,0.,12.0,0.,12.0
1979-07-03 10:00:51.930 ,3,1,0.,12.0,0.,12.0,0.,12.0,0.,12.0
1979-07-03 10:01:03.930 ,3,1,0.,12.0,0.,12.0,0.,12.0,0.,12.0
1979-07-03 10:01:15.920 ,7,1,0.,12.0,0.,12.0,0.,12.0,0.,12.0
1979-07-03 10:01:27.930 ,7,1,0.,12.0,0.,12.0,0.,12.0,0.,12.0
1979-07-03 10:01:39.930 ,4,1,0.,12.0,0.,12.0,0.,12.0,0.,12.0
1979-07-03 10:01:51.930 ,4,1,0.,12.0,0.,12.0,0.,12.0,0.,12.0
1979-07-03 10:02:03.920 ,0,1,0.,12.0,0.,12.0,0.,12.0,0.,12.0
1979-07-03 10:02:15.930 ,0,1,0.,12.0,0.,12.0,0.,12.0,0.,12.0
1979-07-03 10:02:27.930 ,3,1,0.,12.0,0.,12.0,0.,12.0,0.,12.0
1979-07-03 10:02:39.930 ,3,1,0.,12.0,0.,12.0,0.,12.0,0.,12.0
1979-07-03 10:02:51.930 ,7,1,0.,12.0,0.,12.0,0.,12.0,0.,12.0
1979-07-03 10:03:03.930 ,7,1,0.,12.0,0.,12.0,0.,12.0,0.,12.0
1979-07-03 10:03:15.930 ,4,1,0.,12.0,0.,12.0,0.,12.0,0.,12.0
1979-07-03 10:03:27.930 ,4,1,0.,12.0,0.,12.0,0.,12.0,0.,12.0
1979-07-03 10:03:39.930 ,0,1,0.,12.0,0.,12.0,0.,12.0,0.,12.0
1979-07-03 10:03:51.930 ,0,1,0.,12.0,0.,12.0,0.,12.0,0.,12.0
1979-07-03 10:04:03.930 ,3,1,0.,12.0,0.,12.0,0.,12.0,0.,12.0
1979-07-03 10:04:15.930 ,3,1,0.,12.0,0.,12.0,0.,12.0,0.,12.0
1979-07-03 10:04:27.930 ,7,1,0.,12.0,0.,12.0,0.,12.0,0.,12.0
1979-07-03 10:04:39.930 ,7,1,0.,12.0,0.,12.0,0.,12.0,0.,12.0
1979-07-03 10:04:51.930 ,4,1,0.,12.0,0.,12.0,0.,12.0,0.,12.0
1979-07-03 10:05:03.930 ,4,1,0.,12.0,0.,12.0,0.,12.0,0.,12.0
1979-07-03 10:05:15.930 ,0,1,0.,12.0,0.,12.0,0.,12.0,0.,12.0
1979-07-03 10:05:27.930 ,0,1,0.,12.0,0.,12.0,0.,12.0,0.,12.0
1979-07-03 10:05:39.930 ,0,0,0.,12.0,0.,12.0,0.,12.0,0.,12.0
1979-07-03 10:05:51.930 ,0,0,0.,12.0,0.,12.0,0.,12.0,0.,12.0
1979-07-03 10:06:03.930 ,0,0,0.,12.0,0.,12.0,0.,12.0,0.,12.0
1979-07-03 10:06:15.930 ,0,0,0.,12.0,0.,12.0,0.,12.0,0.,12.0
1979-07-03 10:06:27.930 ,5,1,0.,12.0,0.,12.0,0.,12.0,0.,12.0
1979-07-03 10:06:39.930 ,5,1,0.,12.0,0.,12.0,0.,12.0,0.,12.0
1979-07-03 10:06:51.930 ,5,0,0.,12.0,0.,12.0,0.,12.0,0.,12.0
1979-07-03 10:07:03.930 ,5,0,0.,12.0,0.,12.0,0.,12.0,0.,12.0
1979-07-03 10:07:15.930 ,4,1,0.,12.0,0.,12.0,0.,12.0,0.,12.0
1979-07-03 10:07:27.930 ,4,1,0.,12.0,0.,12.0,0.,12.0,0.,12.0
1979-07-03 10:07:39.930 ,4,0,0.,12.0,0.,12.0,0.,12.0,0.,12.0
1979-07-03 10:07:51.930 ,4,0,0.,12.0,0.,12.0,0.,12.0,0.,12.0
1979-07-03 10:08:03.930 ,3,1,0.,12.0,0.,12.0,0.,12.0,0.,12.0
1979-07-03 10:08:15.930 ,3,1,0.,12.0,0.,12.0,0.,12.0,0.,12.0
1979-07-03 10:08:27.930 ,3,0,0.,12.0,0.,12.0,0.,12.0,0.,12.0
1979-07-03 10:08:39.930 ,3,0,0.,12.0,0.,12.0,0.,12.0,0.,12.0
1979-07-03 10:08:51.920 ,2,1,0.,12.0,0.,12.0,0.,12.0,0.,12.0
1979-07-03 10:09:03.930 ,2,1,0.,12.0,0.,12.0,0.,12.0,0.,12.0
1979-07-03 10:09:15.920 ,2,0,0.,12.0,0.,12.0,0.,12.0,0.,12.0
1979-07-03 10:09:27.930 ,2,0,0.,12.0,0.,12.0,0.,12.0,0.,12.0
1979-07-03 10:09:39.920 ,1,1,0.,12.0,0.,12.0,0.,12.0,0.,12.0
1979-07-03 10:09:51.930 ,1,1,0.,12.0,0.,12.0,0.,12.0,0.,12.0
1979-07-03 10:10:03.920 ,1,0,0.,12.0,0.,12.0,0.,12.0,0.,12.0
1979-07-03 10:10:15.930 ,1,0,0.,12.0,0.,12.0,0.,12.0,0.,12.0
1979-07-03 10:10:27.920 ,0,1,0.,12.0,0.,12.0,0.,12.0,0.,12.0
1979-07-03 10:10:39.920 ,0,1,0.,12.0,0.,12.0,0.,12.0,0.,12.0
1979-07-03 10:10:51.920 ,0,0,0.,12.0,0.,12.0,0.,12.0,0.,12.0
1979-07-03 10:11:03.920 ,0,0,0.,12.0,0.,12.0,0.,12.0,0.,12.0
1979-07-03 10:11:15.920 ,0,1,0.,12.0,0.,12.0,0.,12.0,0.,12.0
1979-07-03 10:11:27.920 ,0,1,0.,12.0,0.,12.0,0.,12.0,0.,12.0
1979-07-03 10:11:39.920 ,0,0,0.,12.0,0.,12.0,0.,12.0,0.,12.0
1979-07-03 10:11:51.920 ,0,0,0.,12.0,0.,12.0,0.,12.0,0.,12.0
1979-07-03 10:12:03.920 ,1,1,0.,12.0,0.,12.0,0.,12.0,0.,12.0
1979-07-03 10:12:15.920 ,1,1,0.,12.0,0.,12.0,0.,12.0,0.,12.0
1979-07-03 10:12:27.920 ,1,0,0.,12.0,0.,12.0,0.,12.0,0.,12.0
1979-07-03 10:12:39.920 ,1,0,0.,12.0,0.,12.0,0.,12.0,0.,12.0
1979-07-03 10:12:51.920 ,2,1,0.,12.0,0.,12.0,0.,12.0,0.,12.0
1979-07-03 10:13:03.920 ,2,1,0.,12.0,0.,12.0,0.,12.0,0.,12.0
1979-07-03 10:13:15.920 ,2,0,0.,12.0,0.,12.0,0.,12.0,0.,12.0
1979-07-03 10:13:27.920 ,2,0,0.,12.0,0.,12.0,0.,12.0,0.,12.0
1979-07-03 10:13:39.920 ,3,1,0.,12.0,0.,12.0,0.,12.0,0.,12.0
1979-07-03 10:13:51.920 ,3,1,0.,12.0,0.,12.0,0.,12.0,0.,12.0
1979-07-03 10:14:03.920 ,3,0,0.,12.0,0.,12.0,0.,12.0,0.,12.0
1979-07-03 10:14:15.920 ,3,0,0.,12.0,0.,12.0,0.,12.0,0.,12.0
1979-07-03 10:14:27.920 ,4,1,0.,12.0,0.,12.0,0.,12.0,0.,12.0
1979-07-03 10:14:39.920 ,4,1,0.,12.0,0.,12.0,0.,12.0,0.,12.0
1979-07-03 10:14:51.920 ,4,0,0.,12.0,0.,12.0,0.,12.0,0.,12.0
1979-07-03 10:15:03.920 ,4,0,0.,12.0,0.,12.0,0.,12.0,0.,12.0
1979-07-03 10:15:15.920 ,5,1,0.,12.0,0.,12.0,0.,12.0,0.,12.0
1979-07-03 10:15:27.920 ,5,1,0.,12.0,0.,12.0,0.,12.0,0.,12.0
1979-07-03 10:15:39.920 ,5,0,0.,12.0,0.,12.0,0.,12.0,0.,12.0
1979-07-03 10:15:51.920 ,5,0,0.,12.0,0.,12.0,0.,12.0,0.,12.0
1979-07-03 10:16:03.920 ,6,1,0.,12.0,0.,12.0,0.,12.0,0.,12.0
1979-07-03 10:16:15.920 ,6,1,0.,12.0,0.,12.0,0.,12.0,0.,12.0
1979-07-03 10:16:27.920 ,6,0,0.,12.0,0.,12.0,0.,12.0,0.,12.0
1979-07-03 10:16:39.920 ,6,0,0.,12.0,0.,12.0,0.,12.0,0.,12.0
1979-07-03 10:16:51.920 ,7,1,0.,12.0,0.,12.0,0.,12.0,0.,12.0
1979-07-03 10:17:03.920 ,7,1,0.,12.0,0.,12.0,0.,12.0,0.,12.0
1979-07-03 10:17:15.920 ,7,0,0.,12.0,0.,12.0,0.,12.0,0.,12.0
1979-07-03 10:17:27.920 ,7,0,0.,12.0,0.,12.0,0.,12.0,0.,12.0